Weather History for EGXV - October, 2012

Change the Weather History Date:

Tuesday, October 9, 2012

  Actual Average Record
Temperature  
Mean Temperature 45 °F -  
Max Temperature 55 °F - - ()
Min Temperature 35 °F - - ()
Degree Days  
Heating Degree Days 20    
Moisture  
Dew Point 38 °F    
Average Humidity 80    
Maximum Humidity 100    
Minimum Humidity 51    
Precipitation  
Precipitation 0.00 in - - ()
Sea Level Pressure  
Sea Level Pressure 30.04 in    
Wind  
Wind Speed 3 mph ()    
Max Wind Speed 7 mph    
Max Gust Speed -    
Visibility 6.2 miles    
Events      
T = Trace of Precipitation, MM = Missing Value Source: Averaged Metar Reports

Daily Weather History Graph

Daily Weather History Graph

Search for Another Location

Airport or City:

Trip Planner

Search our weather history database for the weather conditions in past years. The results will help you decide how hot, cold, wet, or windy it might be!

Date:

Astronomy

Oct. 09, 2012 Rise Set
Actual Time 7:18 AM BST 6:18 PM BST
Civil Twilight 6:43 AM BST 6:53 PM BST
Nautical Twilight 6:02 AM BST 7:33 PM BST
Astronomical Twilight 5:21 AM BST 8:15 PM BST
Moon No Moon Rise 3:24 PM BST (10/9)
Length of Visible Light 12h 09m
Length of Day
10h 59m
Last Quarter, 39% of the Moon is Illuminated
Oct 9
Last Quarter
Oct 15
New
Oct 22
First Quarter
Oct 29
Full
Nov 7
Last Quarter

Hourly Weather History & Observations

Time (BST) Temp. Windchill Dew Point Humidity Pressure Visibility Wind Dir Wind Speed Gust Speed Precip Events Conditions
12:50 AM 41.0 °F 39.0 °F 39.2 °F 93% 29.98 in 6.2 mi NW 3.5 mph - N/A   Unknown
2:50 AM 42.8 °F 41.1 °F 41.0 °F 93% 29.98 in 6.2 mi NW 3.5 mph - N/A   Unknown
3:50 AM 41.0 °F 38.0 °F 41.0 °F 100% 29.98 in 6.2 mi WNW 4.6 mph - N/A   Partly Cloudy
5:50 AM 39.2 °F 37.0 °F 37.4 °F 93% 30.01 in 6.2 mi NW 3.5 mph - N/A   Unknown
6:50 AM 39.2 °F 37.0 °F 37.4 °F 93% 30.01 in 6.2 mi NW 3.5 mph - N/A   Unknown
7:50 AM 39.2 °F 37.0 °F 37.4 °F 93% 30.04 in 6.2 mi NW 3.5 mph - N/A   Unknown
9:50 AM 48.2 °F - 41.0 °F 76% 30.06 in 6.2 mi NNW 4.6 mph - N/A   Unknown
10:50 AM 51.8 °F - 41.0 °F 67% 30.06 in 6.2 mi North 6.9 mph - N/A   Unknown
11:50 AM 51.8 °F - 39.2 °F 62% 30.06 in 6.2 mi ENE 6.9 mph - N/A   Scattered Clouds
12:50 PM 53.6 °F - 37.4 °F 54% 30.06 in 6.2 mi ENE 3.5 mph - N/A   Partly Cloudy
1:50 PM 53.6 °F - 37.4 °F 54% 30.06 in 6.2 mi NE 4.6 mph - N/A   Scattered Clouds
2:50 PM 55.4 °F - 37.4 °F 51% 30.06 in 6.2 mi ENE 4.6 mph - N/A   Partly Cloudy
3:50 PM 51.8 °F - 39.2 °F 62% 30.06 in 6.2 mi NE 5.8 mph - N/A   Scattered Clouds
4:50 PM 51.8 °F - 39.2 °F 62% 30.04 in 6.2 mi East 4.6 mph - N/A   Partly Cloudy
5:50 PM 48.2 °F - 39.2 °F 71% 30.04 in 6.2 mi East 3.5 mph - N/A   Unknown
6:50 PM 42.8 °F - 39.2 °F 87% 30.06 in 6.2 mi NE 1.2 mph - N/A   Unknown
7:50 PM 39.2 °F - 37.4 °F 93% 30.06 in 6.2 mi NW 1.2 mph - N/A   Unknown
8:50 PM 39.2 °F - 37.4 °F 93% 30.06 in 6.2 mi NW 1.2 mph - N/A   Unknown
9:50 PM 37.4 °F - 35.6 °F 93% 30.06 in 6.2 mi West 2.3 mph - N/A   Unknown
10:50 PM 35.6 °F - 35.6 °F 100% 30.06 in 6.2 mi West 2.3 mph - N/A   Unknown
11:50 PM 35.6 °F - 35.6 °F 100% 30.06 in 6.2 mi West 2.3 mph - N/A   Unknown